SCP
1 1 1 1 1 3 4 3 2 1 1 1 1 0 0 0 0 0 0 0 0 0 0 0 0 0 0 0 0 0 0 0 0 0 0 0 0 0 0 0 0 0 0
2 1 1 1 1 2 3 2 1 1 1 1 1 0 0 0 0 0 0 0 0 0 0 0 0 0 0 0 0 0 0 0 0 0 0 0 0 0 0 0 0 0 0
2 2 1 1 1 1 1 1 1 1 1 1 1 0 0 0 0 0 0 0 0 0 0 0 0 0 0 0 0 0 0 0 0 0 0 0 0 0 0 0 0 0 0
2 2 1 1 1 1 0 0 1 1 1 1 1 1 0 0 0 0 0 0 0 0 0 0 0 0 0 0 0 0 0 0 0 0 0 0 0 0 0 0 0 0 0
2 2 2 1 1 1 0 1 1 1 1 1 1 0 0 0 0 0 0 0 0 0 0 0 0 0 0 0 0 0 0 0 0 0 0 0 0 0 0 0 0 0 0
2 2 2 2 1 1 1 1 1 2 1 1 1 0 0 0 0 0 0 0 0 0 0 0 0 0 0 0 0 0 0 0 0 0 0 0 0 0 0 0 0 0 0
2 2 2 2 2 1 1 1 2 2 1 1 1 0 0 0 0 0 0 0 0 0 0 0 0 0 0 0 0 0 0 0 0 0 0 0 0 0 0 0 0 0 0
2 2 3 3 2 2 1 1 1 1 1 1 1 0 0 0 0 0 0 0 0 0 0 0 0 0 0 0 0 0 0 0 0 0 0 0 0 0 0 0 0 0 0
2 2 2 3 3 2 2 1 1 1 1 1 1 1 0 0 0 0 0 0 0 0 0 0 0 0 0 0 0 0 0 0 0 0 0 0 0 0 0 0 0 0 0
1 1 1 2 2 2 2 1 1 1 1 1 1 1 1 0 0 0 0 0 0 0 0 0 0 0 0 0 0 0 0 0 0 0 0 0 0 0 0 0 0 0 0
1 1 1 1 1 2 2 2 1 1 1 1 1 1 1 0 0 0 0 0 0 0 0 0 0 0 0 0 0 0 0 0 0 0 0 0 0 0 0 0 0 0 0
0 0 0 1 1 1 1 2 2 2 1 1 1 1 0 0 0 0 0 0 0 0 0 0 0 0 0 0 0 0 0 0 0 0 0 0 0 0 0 0 0 0 0
0 0 0 0 0 1 1 1 2 2 1 1 1 1 0 0 0 0 0 0 0 0 0 0 0 0 0 0 0 0 0 0 0 0 0 0 0 0 0 0 0 0 0
0 0 0 0 0 0 1 1 1 1 1 1 1 1 1 1 0 0 0 0 0 0 0 0 0 0 0 0 0 0 0 0 0 0 0 0 0 0 0 0 0 0 0
0 0 0 0 0 0 0 0 0 0 0 1 1 1 1 0 0 0 0 0 0 0 0 0 0 0 0 0 0 0 0 0 0 0 0 0 0 0 0 0 0 0 0
0 0 0 0 0 0 0 0 0 0 0 0 0 0 0 0 0 0 0 0 0 0 0 0 0 0 0 0 0 0 0 0 0 0 0 0 0 0 0 0 0 0 0
0 0 0 0 0 0 0 0 0 0 0 0 0 0 0 0 0 0 0 0 0 0 0 0 0 0 0 0 0 0 0 0 0 0 0 0 0 0 0 0 0 0 0
0 0 0 0 0 0 0 0 0 0 0 0 0 0 0 0 0 0 0 0 0 0 0 0 0 0 0 0 0 0 0 0 0 0 0 0 0 0 0 0 0 0 0
0 0 0 0 0 0 0 0 0 0 0 0 0 0 0 0 0 0 0 0 0 0 0 0 0 0 0 0 0 0 0 0 0 0 0 0 0 0 0 0 0 0 0
0 0 0 0 0 0 0 0 0 0 0 0 0 0 0 0 0 0 0 0 0 0 0 0 0 0 0 0 0 0 0 0 0 0 0 0 0 0 0 0 0 0 0
0 0 0 0 0 0 0 0 0 0 0 0 0 0 0 0 0 0 0 0 0 0 0 0 0 0 0 0 0 0 0 0 0 0 0 0 0 0 0 0 0 0 0
0 0 0 0 0 0 0 0 0 0 0 0 0 0 0 0 0 0 0 0 0 0 0 0 0 0 0 0 0 0 0 0 0 0 0 0 0 0 0 0 0 0 0
0 0 0 0 0 0 0 0 0 0 0 0 0 0 0 0 0 0 0 0 0 0 0 0 0 0 0 0 0 0 0 0 0 0 0 0 0 0 0 0 0 0 0
0 0 0 0 0 0 0 0 0 0 0 0 0 0 0 0 0 0 0 0 0 0 0 0 0 0 0 0 0 0 0 0 0 0 0 0 0 0 0 0 0 0 0
0 0 0 0 0 0 0 0 0 0 0 0 0 0 0 0 0 0 0 0 0 0 0 0 0 0 0 0 0 0 0 0 0 0 0 0 0 0 0 0 0 0 0
0 0 0 0 0 0 0 0 0 0 0 0 0 0 0 0 0 0 0 0 0 0 0 0 0 0 0 0 0 0 0 0 0 0 0 0 0 0 0 0 0 0 0
Wind_Speed
8 7 6 7 7 7 7 7 7 6 7 7 7 7 7 7 6 6 5 5 5 4 4 4 4 3 3 2 2 2 2 3 3 2 2 2 2 3 2 2 3 4 4
7 6 6 6 7 8 8 7 7 7 7 7 7 7 8 7 7 7 7 7 7 6 6 5 5 4 4 3 3 3 3 4 3 4 2 2 3 3 3 3 3 4 4
7 7 6 7 8 8 8 7 7 7 7 7 7 8 8 8 8 8 8 7 7 7 7 7 6 6 5 4 4 4 3 4 3 3 3 2 3 2 3 3 4 3 5
7 8 7 7 8 8 7 7 7 7 7 7 8 8 8 8 8 8 8 7 7 7 7 7 7 7 7 6 5 5 4 4 4 4 4 3 3 3 2 3 4 3 4
8 8 8 7 7 6 6 7 7 7 8 7 7 7 7 6 7 8 8 8 7 7 6 7 7 8 9 7 6 6 5 4 4 4 4 4 4 3 4 3 4 4 5
8 8 7 7 7 7 7 6 6 6 6 6 7 7 7 7 8 11 9 7 7 7 7 7 6 7 9 9 9 8 8 7 6 5 5 6 6 5 4 4 4 4 5
7 7 6 7 7 7 7 6 7 7 6 6 7 7 8 8 10 11 12 8 7 7 7 6 5 6 7 6 7 8 9 10 9 7 7 8 7 6 5 6 6 6 7
6 6 6 6 7 6 6 6 6 5 6 6 6 7 7 8 10 10 11 8 7 7 7 7 6 6 5 6 6 6 6 7 8 8 8 8 8 6 6 6 7 7 7
3 3 4 5 5 5 5 5 5 4 5 5 4 6 6 6 8 9 9 5 5 6 6 6 6 6 6 7 6 6 6 6 7 9 9 10 10 10 6 4 5 5 7
3 2 2 3 4 4 3 3 2 3 3 3 3 3 4 4 4 7 7 4 4 4 3 4 6 7 6 6 6 6 7 6 4 5 6 7 8 8 9 8 7 7 7
5 5 5 4 3 3 2 2 2 2 2 2 1 1 1 1 0 2 4 4 4 4 3 3 3 4 5 6 6 5 7 5 4 5 5 5 5 5 6 6 7 8 8
7 7 6 5 4 3 3 3 3 3 3 2 2 2 1 1 1 1 1 2 2 2 2 2 2 3 4 5 4 5 6 4 3 3 4 5 5 5 5 6 7 9 10
8 7 6 6 6 5 4 4 3 3 2 2 1 1 1 1 1 2 1 1 1 1 1 0 1 1 2 2 3 4 3 2 2 3 4 5 5 6 6 5 7 7 9
9 7 7 6 6 6 5 4 3 3 2 2 1 1 1 1 2 2 1 1 1 0 1 1 1 1 0 1 2 2 1 2 3 4 4 5 4 5 5 5 6 6 6
8 7 6 6 6 6 6 5 5 4 3 2 1 1 1 2 2 2 2 2 1 1 1 1 2 2 2 2 2 2 2 1 2 3 3 4 4 5 5 5 5 5 6
7 6 5 5 4 4 5 6 9 8 10 9 7 4 4 4 4 5 5 4 4 3 2 2 2 2 2 2 3 3 2 3 3 3 3 4 5 5 6 6 5 6 8
7 5 4 4 4 4 4 4 4 6 9 9 8 7 5 5 6 5 5 5 5 4 2 1 1 2 2 3 3 3 4 4 4 4 4 4 5 6 6 6 6 7 8
6 6 5 4 4 3 3 3 3 3 3 4 5 7 6 5 5 5 4 3 3 3 2 1 2 2 2 3 3 4 4 4 4 4 5 5 5 5 6 7 7 8 8
5 4 4 4 3 3 3 3 3 3 3 2 3 4 5 4 4 5 4 2 2 2 2 2 2 3 3 3 4 4 4 5 5 5 5 6 5 6 6 7 8 10 9
4 6 5 3 3 3 3 3 3 3 2 2 3 3 3 3 3 3 3 3 2 3 3 3 4 4 4 4 4 4 5 5 6 5 5 6 6 6 7 9 9 9 8
3 4 6 4 3 3 2 2 2 2 2 2 2 3 3 2 2 3 3 3 3 3 4 4 4 5 4 4 4 5 6 5 5 6 6 6 7 7 7 8 9 9 9
3 3 3 3 2 2 2 2 2 2 3 3 3 4 4 3 3 3 3 4 4 4 4 4 4 4 5 5 5 5 6 6 6 6 7 7 7 7 8 8 8 9 9
3 3 3 3 3 3 3 3 3 3 3 3 3 4 4 4 4 4 4 4 4 4 4 4 4 5 5 5 5 5 6 6 6 7 8 8 8 8 8 9 11 11 11
3 3 3 3 3 3 3 3 3 3 4 4 4 4 4 4 4 5 5 5 5 5 5 5 6 8 9 7 6 5 5 6 8 7 9 9 9 9 9 9 10 12 11
3 3 3 3 3 3 3 3 3 3 3 3 3 3 4 4 4 5 5 5 6 6 7 7 6 7 10 11 10 8 8 9 8 8 8 8 10 10 10 11 10 11 11
4 4 3 3 3 3 3 3 3 3 3 3 3 4 4 4 4 5 5 6 6 6 7 6 8 10 11 9 11 11 10 10 9 9 7 7 9 9 10 9 12 11 11
Wind_Direction
178 181 179 183 185 179 183 190 188 181 180 184 188 186 187 185 180 181 189 182 185 191 190 193 204 190 187 183 174 173 180 174 207 250 249 263 260 265 279 263 257 258 267
178 177 184 184 181 185 191 194 188 185 187 190 187 188 192 191 186 190 198 193 194 199 201 199 211 201 203 198 191 196 198 196 203 236 249 246 247 254 263 271 268 261 259
172 176 185 187 183 189 193 191 189 188 188 188 186 192 195 193 192 197 200 200 203 207 204 204 211 202 213 211 208 210 210 206 207 226 251 246 256 256 264 266 266 268 266
173 180 187 190 191 193 191 189 190 188 188 192 195 199 198 196 197 199 199 202 206 213 213 212 212 207 214 214 215 217 213 211 210 227 249 257 258 255 247 262 275 263 271
179 187 196 193 188 187 189 191 190 191 197 197 198 203 201 197 203 202 203 204 207 215 220 222 221 217 218 214 215 215 208 214 220 232 248 258 259 250 249 248 267 284 276
183 194 193 186 184 189 193 190 188 195 197 193 200 204 204 209 208 202 199 206 208 215 223 226 228 229 229 225 226 220 207 211 221 228 243 250 259 253 253 250 261 276 282
185 190 189 187 190 197 196 191 197 201 198 199 204 206 211 215 207 203 202 202 210 215 220 223 229 229 220 228 233 234 229 227 221 224 243 251 258 253 250 258 248 247 256
184 189 190 189 195 192 185 194 199 194 198 205 208 209 213 219 208 206 205 204 212 219 220 219 226 236 227 220 229 237 241 240 235 231 239 250 255 258 248 256 263 264 263
158 175 178 179 184 180 186 196 194 190 199 204 205 208 211 218 209 208 201 203 216 228 230 229 227 237 238 223 225 240 252 256 248 239 242 252 259 261 254 253 253 257 269
91 102 121 140 154 167 180 184 174 183 203 199 206 209 214 225 214 208 201 202 216 229 233 234 231 233 240 228 226 234 250 262 269 271 261 263 263 262 247 235 241 251 264
67 71 74 86 111 124 122 120 125 141 135 136 135 106 133 176 184 208 203 205 216 224 231 234 235 231 236 235 229 233 246 263 270 267 272 275 271 264 256 243 235 238 250
75 73 69 67 70 78 89 85 91 109 110 109 111 98 76 80 91 75 112 187 224 224 238 245 242 220 224 227 225 238 253 258 255 261 269 273 274 272 268 262 252 247 248
70 65 62 63 60 61 74 78 75 78 94 100 115 115 57 41 48 56 88 162 187 205 242 249 304 270 256 246 245 252 256 244 246 255 262 268 271 276 281 279 274 264 262
66 58 54 58 56 54 55 58 67 61 72 81 93 87 59 51 42 35 41 57 49 356 339 359 12 20 339 297 308 296 269 254 251 260 270 275 281 282 281 282 283 286 282
64 58 53 52 56 56 54 47 52 47 51 78 75 81 70 37 17 38 69 55 43 38 56 46 36 19 7 357 345 329 317 297 274 272 277 287 292 293 293 294 286 286 277
65 55 52 53 53 57 63 56 52 57 52 57 64 76 66 66 67 65 63 60 56 76 79 47 19 1 343 328 320 321 316 308 303 299 295 293 295 295 296 296 289 283 281
71 62 54 52 54 56 59 67 58 42 49 51 51 58 65 69 69 63 57 54 50 66 67 35 350 333 327 324 322 316 311 312 311 304 299 295 293 293 292 291 291 288 285
67 63 63 56 56 58 59 60 66 65 46 33 31 41 51 58 57 49 45 53 40 33 28 360 334 324 319 316 314 313 308 307 305 299 296 295 294 295 294 292 291 289 289
65 60 59 57 54 57 61 63 65 67 64 47 28 25 29 37 42 34 32 29 11 355 344 327 318 318 317 315 313 308 306 307 308 306 301 299 296 294 292 293 292 292 288
58 64 66 62 55 54 55 59 58 59 56 43 28 17 10 24 27 16 15 6 357 343 334 326 323 321 318 315 314 311 307 305 307 303 301 298 295 293 293 294 293 293 291
56 53 56 57 54 56 56 54 51 49 42 30 11 2 8 15 8 0 356 354 347 337 332 326 319 318 317 315 311 308 306 304 303 301 299 298 297 295 294 293 293 291 291
65 59 54 56 51 50 50 50 47 43 34 24 8 9 19 24 10 360 355 350 346 339 332 325 325 326 323 319 315 311 307 305 306 306 304 302 300 298 298 296 294 293 292
72 69 61 52 50 52 52 47 44 42 35 28 21 19 19 17 10 4 359 354 350 347 345 339 333 331 331 326 319 312 307 307 309 308 305 301 297 295 294 292 292 294 292
74 76 72 60 53 52 52 47 42 38 35 32 30 25 18 13 10 5 360 353 349 348 347 343 338 335 334 332 325 317 314 314 312 301 296 291 289 288 287 288 289 290 291
73 71 68 64 61 55 52 48 40 33 29 25 23 19 14 9 6 2 356 351 347 345 344 342 337 333 331 329 326 322 320 312 302 300 293 285 282 283 284 286 287 290 290
74 72 65 59 57 53 49 42 35 29 26 25 21 15 12 9 4 358 352 348 342 338 336 334 333 332 329 327 325 324 315 309 305 300 293 286 283 282 287 286 289 289 290